Regional Weather Roundup
Issued by NWS

Home | Current Version | Previous Version | Graphics & Text | Print | Product List | Glossary On
Versions: 1 2 3 4 5 6 7 8 9 10 11 12 13 14 15 16 17 18 19 20 21 22 23 24 25 26 27 28 29 30 31 32 33 34 35 36 37 38 39 40 41 42 43 44 45 46 47 48 49 50
000
ASUS43 KLSX 210107
RWRMO

WEATHER SUMMARY FOR MISSOURI
NATIONAL WEATHER SERVICE SPRINGFIELD MO
800 PM CDT SAT SEP 20 2014

NOTE: "FAIR" INDICATES FEW OR NO CLOUDS BELOW 12,000 FEET WITH NO
       SIGNIFICANT WEATHER AND/OR OBSTRUCTIONS TO VISIBILITY.
       CURRENT SKY AND/OR WEATHER CONDITIONS ARE NOT AVAILABLE FOR
       CHILLICOTHE AND FARMINGTON.

MOZ001>031-035>038-043-044-053-054-210200-
...NORTHERN AND WESTERN MISSOURI...

CITY           SKY/WX    TMP DP  RH WIND       PRES   REMARKS
KANSAS CTY INT PTCLDY    74  70  87 W7        29.94R
KANSAS C DTWN  PTCLDY    78  70  76 W3        29.93R
LEE`S SUMMIT   MOCLDY    76  70  82 SW8       29.94S
ST JOSEPH      CLEAR     71  68  90 SW6       29.93R
CHILLICOTHE      N/A     78  71  79 CALM      29.92R
KIRKSVILLE     MOCLDY    74  71  91 NW5       29.91R

$$
MOZ066>068-077>081-088>096-101>105-210200-
...SOUTHWEST MISSOURI...

CITY           SKY/WX    TMP DP  RH WIND       PRES   REMARKS
SPRINGFIELD    CLOUDY    75  68  78 SW5       29.99S
JOPLIN         MOCLDY    76  69  79 S5        30.00R

$$
MOZ032>034-039>042-045>050-055>058-069>072-210200-
...CENTRAL MISSOURI...

CITY           SKY/WX    TMP DP  RH WIND       PRES   REMARKS
COLUMBIA       CLEAR     72  68  87 SW6       29.94S
JEFFERSON CITY PTCLDY    76  68  76 CALM      29.93R
ROLLA          PTCLDY    70  66  87 SW6       29.95S
SEDALIA        CLEAR     75  70  84 SW7       29.94S
WHITEMAN AFB   PTCLDY    72  70  93 SW7       29.93S
OSAGE BEACH    PTCLDY    73  68  83 CALM      29.96R

$$
MOZ051-052-059>065-210200-
...EAST CENTRAL MISSOURI...

CITY           SKY/WX    TMP DP  RH WIND       PRES   REMARKS
ST LOUIS INTL  PTCLDY    80  67  64 SW7       29.92S
SPIRIT OF STL  PTCLDY    72  68  87 CALM      29.91S
ST CHARLES     CLEAR     74  66  76 SW7       29.90S

$$
MOZ072>076-082>087-097>100-106>115-210200-
...SOUTH CENTRAL AND SOUTHEAST MISSOURI...

CITY           SKY/WX    TMP DP  RH WIND       PRES   REMARKS
CAPE GIRARDEAU CLEAR     73  67  81 S6        29.95S
FARMINGTON     CLEAR     73  66  78 SW3       29.98S
POPLAR BLUFF   CLEAR     76  67  73 S3        29.95S
WEST PLAINS    PTCLDY    75  68  78 SW3       30.01S

$$


USA.gov is the U.S. government's official web portal to all federal, state and local government web resources and services.